Location: Newark
(41.7772°N, 74.7403°W)
Time: 18:55:25
(UTC+00:00)

Courier 1B - Visible Passes

Search period start: 06 June 2020 00:00
Search period end: 16 June 2020 00:00
Orbit: 963 x 1209 km, 28.3° (Epoch: 06 June)

Date Brightness Start Highest point End Pass type
(mag) Time Alt. Az. Time Alt. Az. Time Alt. Az.
06 Jun 8.8 02:10:40 10° SSW 02:15:48 22° SSE 02:16:43 21° SSE visible
06 Jun 9.6 04:03:01 10° SW 04:03:39 12° SW 04:03:39 12° SW visible
07 Jun 9.0 01:17:47 10° SSW 01:22:15 18° SSE 01:26:46 10° ESE visible
07 Jun 8.8 03:09:34 10° SW 03:13:41 25° SSW 03:13:41 25° SSW visible
08 Jun 8.6 02:16:15 10° SW 02:21:45 25° S 02:23:30 23° SSE visible
08 Jun 9.5 04:09:15 10° WSW 04:10:25 14° SW 04:10:25 14° SW visible
09 Jun 8.8 01:23:03 10° SW 01:28:11 23° SSE 01:33:11 11° ESE visible
09 Jun 8.7 03:15:40 10° WSW 03:20:04 26° SSW 03:20:04 26° SSW visible
10 Jun 8.6 02:22:11 10° SW 02:27:46 27° S 02:29:37 24° SSE visible
10 Jun 9.6 04:15:46 10° WSW 04:16:30 12° WSW 04:16:30 12° WSW visible
11 Jun 8.7 01:28:49 10° SW 01:34:10 26° S 01:39:04 12° SE visible
11 Jun 8.9 03:22:02 10° WSW 03:25:57 22° SSW 03:25:57 22° SSW visible
12 Jun 8.6 02:28:25 10° WSW 02:33:48 25° S 02:35:20 23° SSE visible
13 Jun 8.7 01:34:54 10° SW 01:40:14 26° S 01:44:41 14° SE visible
13 Jun 9.2 03:28:47 10° WSW 03:31:33 17° SW 03:31:33 17° SW visible
14 Jun 8.8 02:34:57 10° WSW 02:39:49 21° SSW 02:40:53 20° S visible
15 Jun 8.8 01:41:15 10° WSW 01:46:16 23° S 01:50:12 14° SSE visible
15 Jun 9.6 03:36:23 10° SW 03:37:05 11° SW 03:37:05 11° SW visible
